Time,TemperatureF,DewpointF,PressureIn,WindDirection,WindDirectionDegrees,WindSpeedMPH,WindSpeedGustMPH,Humidity,HourlyPrecipIn,Conditions,Clouds,dailyrainin,SoftwareType,DateUTC
2013-08-06 00:01:00,64.3,64.3,26.80,ESE,120,1.0,2.0,100,0.00,,,-99.99,VWS V12.07,2013-08-06 04:01:00,
2013-08-06 00:31:00,64.1,64.1,26.80,SE,128,0.0,0.0,100,0.00,,,-99.99,VWS V12.07,2013-08-06 04:31:00,
2013-08-06 01:01:00,64.5,64.5,26.80,SE,127,0.0,0.0,100,0.00,,,-99.99,VWS V12.07,2013-08-06 05:01:00,
2013-08-06 01:31:00,64.7,64.7,26.80,SE,130,0.0,1.0,100,0.00,,,-99.99,VWS V12.07,2013-08-06 05:31:00,
2013-08-06 02:01:00,64.0,64.0,26.78,ESE,122,0.0,0.0,100,0.00,,,-99.99,VWS V12.07,2013-08-06 06:01:00,
2013-08-06 02:31:00,63.8,63.8,26.78,SE,124,0.0,0.0,100,0.00,,,-99.99,VWS V12.07,2013-08-06 06:31:00,
2013-08-06 03:01:00,63.6,63.6,26.77,WNW,285,0.0,3.0,100,0.00,,,-99.99,VWS V12.07,2013-08-06 07:01:00,
2013-08-06 03:31:00,63.8,63.8,26.77,SE,144,2.0,6.0,100,0.00,,,-99.99,VWS V12.07,2013-08-06 07:31:00,
2013-08-06 04:01:00,64.5,64.5,26.78,South,182,3.0,6.0,100,0.00,,,-99.99,VWS V12.07,2013-08-06 08:01:00,
2013-08-06 04:31:00,64.5,64.5,26.78,West,263,0.0,2.0,100,0.00,,,-99.99,VWS V12.07,2013-08-06 08:31:00,
2013-08-06 05:01:00,63.4,63.4,26.78,WNW,288,0.0,0.0,100,0.00,,,-99.99,VWS V12.07,2013-08-06 09:01:00,
2013-08-06 05:31:00,62.4,62.4,26.78,West,261,0.0,0.0,100,0.00,,,-99.99,VWS V12.07,2013-08-06 09:31:00,
2013-08-06 06:01:00,61.3,61.3,26.79,West,261,0.0,0.0,100,0.00,,,-99.99,VWS V12.07,2013-08-06 10:01:00,
2013-08-06 06:31:00,61.4,61.4,26.81,West,264,0.0,0.0,100,0.00,,,-99.99,VWS V12.07,2013-08-06 10:31:00,
2013-08-06 07:01:00,63.2,63.2,26.81,West,277,0.0,0.0,100,0.00,,,-99.99,VWS V12.07,2013-08-06 11:01:00,
2013-08-06 07:31:00,64.2,64.2,26.82,West,274,0.0,0.0,100,0.00,,,-99.99,VWS V12.07,2013-08-06 11:31:00,
2013-08-06 08:01:00,66.4,66.4,26.82,WNW,294,0.0,3.0,100,0.00,,,-99.99,VWS V12.07,2013-08-06 12:01:00,
2013-08-06 08:31:00,68.2,68.2,26.82,SSE,158,0.0,4.0,100,0.00,,,-99.99,VWS V12.07,2013-08-06 12:31:00,
2013-08-06 09:01:00,70.3,66.2,26.82,SSE,161,2.0,3.0,87,0.00,,,-99.99,VWS V12.07,2013-08-06 13:01:00,
2013-08-06 09:31:00,71.7,67.6,26.83,SSE,151,4.0,6.0,87,0.00,,,-99.99,VWS V12.07,2013-08-06 13:31:00,
2013-08-06 10:01:00,71.0,66.3,26.83,SW,236,3.0,4.0,85,0.00,,,-99.99,VWS V12.07,2013-08-06 14:01:00,
2013-08-06 10:31:00,72.6,66.1,26.83,South,182,5.0,6.0,80,0.00,,,-99.99,VWS V12.07,2013-08-06 14:31:00,
2013-08-06 11:01:00,73.2,67.0,26.83,SW,215,5.0,7.0,81,0.00,,,-99.99,VWS V12.07,2013-08-06 15:01:00,
2013-08-06 11:31:00,72.4,65.9,26.84,SSW,204,2.0,7.0,80,0.00,,,-99.99,VWS V12.07,2013-08-06 15:31:00,
2013-08-06 12:01:00,72.6,67.2,26.84,NW,325,1.0,3.0,83,0.00,,,-99.99,VWS V12.07,2013-08-06 16:01:00,
2013-08-06 12:31:00,71.9,67.8,26.83,North,4,3.0,6.0,87,0.00,,,-99.99,VWS V12.07,2013-08-06 16:31:00,
2013-08-06 13:01:00,70.5,69.0,26.82,ENE,72,6.0,8.0,95,0.00,,,-99.99,VWS V12.07,2013-08-06 17:01:00,
2013-08-06 13:31:00,69.7,69.1,26.83,ENE,66,4.0,7.0,98,0.00,,,-99.99,VWS V12.07,2013-08-06 17:31:00,
2013-08-06 14:01:00,69.5,69.5,26.83,East,100,4.0,6.0,100,0.00,,,-99.99,VWS V12.07,2013-08-06 18:01:00,
2013-08-06 14:31:00,69.5,69.5,26.83,NE,55,1.0,5.0,100,0.00,,,-99.99,VWS V12.07,2013-08-06 18:31:00,
2013-08-06 15:01:00,68.4,68.4,26.83,ESE,114,2.0,5.0,100,0.00,,,-99.99,VWS V12.07,2013-08-06 19:01:00,
2013-08-06 15:31:00,68.2,68.2,26.82,East,101,2.0,6.0,100,0.00,,,-99.99,VWS V12.07,2013-08-06 19:31:00,
2013-08-06 16:01:00,68.8,68.8,26.82,ENE,58,1.0,5.0,100,0.00,,,-99.99,VWS V12.07,2013-08-06 20:01:00,
2013-08-06 16:31:00,69.4,69.4,26.83,NE,54,3.0,5.0,100,0.00,,,-99.99,VWS V12.07,2013-08-06 20:31:00,
2013-08-06 17:01:00,68.2,68.2,26.83,East,79,7.0,7.0,100,0.00,,,-99.99,VWS V12.07,2013-08-06 21:01:00,
2013-08-06 17:31:00,67.0,67.0,26.83,East,81,2.0,8.0,100,0.00,,,-99.99,VWS V12.07,2013-08-06 21:31:00,
2013-08-06 18:01:00,66.9,66.9,26.83,ENE,64,2.0,4.0,100,0.00,,,-99.99,VWS V12.07,2013-08-06 22:01:00,
2013-08-06 18:31:00,66.4,66.4,26.83,NE,54,4.0,7.0,100,0.00,,,-99.99,VWS V12.07,2013-08-06 22:31:00,
2013-08-06 19:01:00,65.9,65.9,26.84,ESE,114,0.0,2.0,100,0.00,,,-99.99,VWS V12.07,2013-08-06 23:01:00,
2013-08-06 19:31:00,65.6,65.6,26.84,ENE,61,3.0,4.0,100,0.00,,,-99.99,VWS V12.07,2013-08-06 23:31:00,
2013-08-06 20:01:00,65.3,65.3,26.84,East,100,3.0,10.0,100,0.00,,,-99.99,VWS V12.07,2013-08-07 00:01:00,
2013-08-06 20:31:00,65.3,65.3,26.84,East,88,2.0,19.0,100,0.00,,,-99.99,VWS V12.07,2013-08-07 00:31:00,
2013-08-06 21:01:00,65.3,65.3,26.84,ENE,70,3.0,29.0,100,0.00,,,-99.99,VWS V12.07,2013-08-07 01:01:00,
2013-08-06 21:31:00,65.1,65.1,26.85,ENE,72,0.0,0.0,100,0.00,,,-99.99,VWS V12.07,2013-08-07 01:31:00,
2013-08-06 22:01:00,65.0,65.0,26.85,ENE,71,0.0,3.0,100,0.00,,,-99.99,VWS V12.07,2013-08-07 02:01:00,
2013-08-06 22:31:00,64.8,64.8,26.85,South,178,2.0,4.0,100,0.00,,,-99.99,VWS V12.07,2013-08-07 02:31:00,
2013-08-06 23:01:00,64.3,64.3,26.85,ESE,109,0.0,4.0,100,0.00,,,-99.99,VWS V12.07,2013-08-07 03:01:00,
2013-08-06 23:31:00,64.2,64.2,26.85,ESE,104,2.0,4.0,100,0.00,,,-99.99,VWS V12.07,2013-08-07 03:31:00,